Perryton, TX

10:43 AM CST on January 23, 2018 (GMT -0600)
Perryton Ochiltree County

Weather History for KPYX - June, 2013

Change the Weather History Date:

Thursday, June 27, 2013

  Actual Average Record
Temperature  
Mean Temperature 89 °F -  
Max Temperature 108 °F 91 °F 109 °F (2012)
Min Temperature 71 °F 62 °F 49 °F (1969)
Cooling Degree Days 24    
Growing Degree Days 39 (Base 50)    
Moisture  
Dew Point 60 °F    
Average Humidity 51    
Maximum Humidity 76    
Minimum Humidity 10    
Precipitation  
Precipitation 0.00 in - - ()
Sea Level Pressure  
Sea Level Pressure 30.01 in    
Wind  
Wind Speed 10 mph (SSE)    
Max Wind Speed 40 mph    
Max Gust Speed 51 mph    
Visibility 10 miles    
Events      
Averages and records for this station are not official NWS values.
T = Trace of Precipitation, MM = Missing Value Source: NWS Daily Summary

Daily Weather History Graph

Daily Weather History Graph

Search for Another Location

Airport or City:

Trip Planner

Search our weather history database for the weather conditions in past years. The results will help you decide how hot, cold, wet, or windy it might be!

Date:

Astronomy

Jun. 27, 2013 Rise Set
Actual Time 6:27 AM CDT 9:05 PM CDT
Civil Twilight 5:56 AM CDT 9:35 PM CDT
Nautical Twilight 5:18 AM CDT 10:13 PM CDT
Astronomical Twilight 4:36 AM CDT 10:55 PM CDT
Moon No Moon Rise 11:21 AM CDT (6/27)
Length of Visible Light 15h 38m
Length of Day
14h 37m
Waning Gibbous, 76% of the Moon is Illuminated
Jun 27
Waning Gibbous
Jun 29
Last Quarter
Jul 8
New
Jul 15
First Quarter
Jul 22
Full

Hourly Weather History & Observations

Time (CDT) Temp. Heat Index Dew Point Humidity Pressure Visibility Wind Dir Wind Speed Gust Speed Precip Events Conditions
12:15 AM 81.7 °F 82.9 °F 62.8 °F 53% 29.98 in 10.0 mi SSE 9.2 mph - N/A   Clear
12:35 AM 82.4 °F 83.4 °F 62.6 °F 51% 29.98 in 10.0 mi SSE 10.4 mph - N/A   Clear
1:15 AM 79.7 °F - 63.5 °F 58% 29.98 in 10.0 mi SE 10.4 mph - N/A   Clear
1:35 AM 79.9 °F - 63.5 °F 57% 29.98 in 10.0 mi SE 10.4 mph - N/A   Clear
1:55 AM 78.8 °F - 63.3 °F 59% 29.99 in 10.0 mi SE 9.2 mph - N/A   Clear
2:15 AM 77.5 °F - 63.5 °F 62% 29.99 in 10.0 mi ESE 9.2 mph - N/A   Clear
2:35 AM 77.2 °F - 63.5 °F 63% 29.99 in 10.0 mi ESE 9.2 mph - N/A   Clear
2:55 AM 76.3 °F - 63.7 °F 65% 30.00 in 10.0 mi ESE 6.9 mph - N/A   Clear
3:15 AM 75.6 °F - 64.2 °F 68% 30.00 in 10.0 mi ESE 8.1 mph - N/A   Clear
3:35 AM 75.2 °F - 64.4 °F 69% 30.00 in 10.0 mi ESE 9.2 mph - N/A   Clear
3:55 AM 75.2 °F - 64.4 °F 69% 30.00 in 10.0 mi ESE 8.1 mph - N/A   Clear
4:15 AM 74.7 °F - 64.4 °F 70% 30.00 in 10.0 mi SE 8.1 mph - N/A   Clear
4:35 AM 74.3 °F - 64.4 °F 71% 30.00 in 10.0 mi SE 8.1 mph - N/A   Clear
4:55 AM 74.3 °F - 63.7 °F 69% 30.00 in 10.0 mi SSE 9.2 mph - N/A   Clear
5:15 AM 74.7 °F - 63.5 °F 68% 30.00 in 10.0 mi SSE 9.2 mph - N/A   Clear
5:35 AM 74.1 °F - 63.5 °F 69% 30.00 in 10.0 mi SSE 9.2 mph - N/A   Clear
5:55 AM 73.2 °F - 63.5 °F 71% 30.00 in 10.0 mi SSE 8.1 mph - N/A   Clear
6:15 AM 72.7 °F - 63.5 °F 73% 30.00 in 10.0 mi SSE 6.9 mph - N/A   Clear
6:35 AM 72.0 °F - 63.5 °F 75% 30.01 in 10.0 mi SSE 6.9 mph - N/A   Clear
6:55 AM 71.6 °F - 63.5 °F 76% 30.02 in 10.0 mi SSE 6.9 mph - N/A   Clear
7:15 AM 72.9 °F - 63.7 °F 73% 30.02 in 10.0 mi SSE 6.9 mph - N/A   Clear
7:35 AM 75.4 °F - 64.4 °F 69% 30.02 in 10.0 mi SSE 9.2 mph - N/A   Clear
7:55 AM 77.7 °F - 64.4 °F 63% 30.02 in 10.0 mi South 12.7 mph - N/A   Clear
8:15 AM 79.9 °F - 64.4 °F 59% 30.02 in 7.0 mi South 10.4 mph - N/A   Clear
8:35 AM 82.2 °F 83.7 °F 64.2 °F 54% 30.03 in 10.0 mi South 12.7 mph - N/A   Clear
8:55 AM 83.5 °F 84.9 °F 64.0 °F 52% 30.03 in 10.0 mi South 13.8 mph - N/A   Clear
9:15 AM 86.0 °F 87.1 °F 63.9 °F 47% 30.03 in 10.0 mi South 13.8 mph - N/A   Clear
9:35 AM 88.5 °F 89.5 °F 63.1 °F 43% 30.04 in 10.0 mi South 13.8 mph - N/A   Clear
9:55 AM 90.0 °F 90.3 °F 62.2 °F 39% 30.04 in 10.0 mi SSW 12.7 mph - N/A   Clear
10:15 AM 91.4 °F 91.7 °F 61.9 °F 37% 30.03 in 10.0 mi SSW 13.8 mph - N/A   Clear
10:35 AM 93.0 °F 93.0 °F 61.0 °F 34% 30.03 in 10.0 mi SW 15.0 mph 19.6 mph N/A   Clear
10:55 AM 94.8 °F 94.9 °F 61.0 °F 32% 30.03 in 10.0 mi SW 15.0 mph - N/A   Clear
11:15 AM 96.1 °F 96.4 °F 60.6 °F 31% 30.03 in 10.0 mi SW 12.7 mph - N/A   Clear
11:35 AM 97.2 °F 97.2 °F 59.9 °F 29% 30.03 in 10.0 mi SSW 16.1 mph - N/A   Clear
11:55 AM 98.6 °F 98.5 °F 59.0 °F 27% 30.03 in 10.0 mi SW 11.5 mph 18.4 mph N/A   Clear
12:15 PM 99.9 °F 99.4 °F 58.5 °F 25% 30.03 in 10.0 mi SW 12.7 mph 20.7 mph N/A   Clear
12:35 PM 100.4 °F 99.7 °F 57.7 °F 24% 30.03 in 10.0 mi SSW 15.0 mph 21.9 mph N/A   Clear
2:35 PM 105.3 °F - 52.7 °F 17% 30.00 in 10.0 mi SW 11.5 mph 19.6 mph N/A   Clear
3:15 PM 105.8 °F - 49.6 °F 15% 29.99 in 10.0 mi SSW 6.9 mph 17.3 mph N/A   Clear
4:15 PM 107.6 °F - 40.6 °F 10% 29.96 in 10.0 mi South 5.8 mph - N/A   Clear
4:55 PM 107.6 °F - 43.3 °F 11% 29.94 in 10.0 mi SW 6.9 mph 10.4 mph N/A   Clear
5:15 PM 107.8 °F - 42.3 °F 11% 29.93 in 10.0 mi SSW 8.1 mph 16.1 mph N/A   Clear
6:15 PM 107.2 °F - 43.2 °F 11% 29.92 in 10.0 mi South 10.4 mph 13.8 mph N/A   Clear
7:15 PM 90.5 °F - 52.0 °F 27% 29.94 in 2.5 mi North 40.3 mph 50.6 mph N/A   Scattered Clouds
7:35 PM 81.0 °F 81.7 °F 60.6 °F 50% 29.98 in 7.0 mi NE 13.8 mph 31.1 mph N/A   Scattered Clouds
7:55 PM 74.5 °F - 61.9 °F 65% 30.00 in 10.0 mi ESE 21.9 mph 33.4 mph N/A   Scattered Clouds
8:15 PM 72.7 °F - 62.2 °F 70% 30.03 in 10.0 mi East 24.2 mph 35.7 mph N/A   Clear
8:35 PM 74.7 °F - 60.8 °F 62% 30.03 in 10.0 mi ESE 19.6 mph 32.2 mph N/A   Scattered Clouds
8:55 PM 75.6 °F - 60.8 °F 60% 30.03 in 10.0 mi ESE 12.7 mph - N/A   Scattered Clouds
9:15 PM 77.7 °F - 59.9 °F 54% 30.03 in 10.0 mi SE 10.4 mph - N/A   Clear
9:35 PM 77.9 °F - 60.6 °F 55% 30.03 in 10.0 mi ESE 6.9 mph - N/A   Clear
9:55 PM 77.0 °F - 61.5 °F 59% 30.05 in 10.0 mi East 5.8 mph - N/A   Clear
10:15 PM 77.2 °F - 61.3 °F 58% 30.07 in 10.0 mi South 10.4 mph - N/A   Clear
10:35 PM 79.9 °F - 59.0 °F 49% 30.07 in 10.0 mi SSW 4.6 mph - N/A   Clear
10:55 PM 79.0 °F - 59.7 °F 52% 30.07 in 10.0 mi Calm Calm - N/A   Clear
11:15 PM 77.5 °F - 61.3 °F 57% 30.09 in 10.0 mi East 5.8 mph - N/A   Clear
11:35 PM 77.0 °F - 62.2 °F 60% 30.09 in 10.0 mi Calm Calm - N/A   Clear
11:55 PM 77.0 °F - 62.6 °F 61% 30.08 in 10.0 mi Calm Calm - N/A   Clear